Theta_e
341 342 344 345 345 345 346 346 345 343 343 342 340 338 336 334 330 325 321 318 318 319 318 318 317 313 303
337 332 337 340 341 342 341 339 336 337 338 337 335 337 336 333 329 326 322 319 318 317 317 316 313 309 300
340 334 331 335 337 335 334 331 331 333 333 332 331 335 335 333 329 326 322 318 316 317 316 312 307 299 300
327 338 339 338 336 336 336 333 335 331 332 333 328 330 332 330 330 328 323 318 311 303 302 305 298 299 300
312 329 334 338 335 333 335 334 336 333 331 329 328 327 324 321 319 317 315 312 307 306 302 301 300 298 299
311 322 330 331 330 326 328 332 333 332 329 327 326 327 327 324 316 314 312 311 310 308 306 304 303 300 299
314 326 324 321 324 323 323 329 332 331 329 329 326 324 323 323 319 313 312 312 309 310 308 307 305 303 302
319 319 318 318 320 321 320 323 325 325 323 321 320 318 318 317 316 313 312 309 311 310 307 307 306 305 302
313 313 314 315 315 314 315 317 318 319 318 317 316 314 314 314 314 312 309 309 307 307 306 307 305 300 299
309 309 309 310 310 310 311 313 314 313 313 312 312 311 312 311 309 305 302 299 298 299 299 300 298 298 296
306 307 306 306 306 307 308 309 309 308 307 305 302 303 303 303 300 297 294 295 295 296 300 298 295 295 293
303 302 301 300 299 299 301 302 302 300 300 298 297 297 298 298 296 293 290 290 291 295 298 296 295 293 290
301 300 298 296 295 295 296 297 295 295 296 294 292 291 292 293 292 292 289 287 287 288 294 293 292 290 288
303 299 296 294 291 291 291 289 290 291 290 289 289 288 288 287 286 287 288 287 285 284 291 291 288 289 287
298 294 291 291 290 289 286 286 287 288 288 288 287 286 286 286 284 284 285 285 283 283 283 288 282 283 283
295 293 292 288 286 286 284 284 285 286 286 287 286 286 285 285 284 283 283 283 283 281 282 283 280 282 277
Wind_Speed
6 7 8 9 9 9 10 11 13 13 14 14 13 14 15 15 16 15 14 14 15 15 16 16 16 16 8
5 7 8 9 9 10 10 11 11 11 11 11 11 11 14 16 14 14 14 13 13 13 13 14 14 14 7
5 5 6 7 7 7 7 9 9 5 6 8 7 10 9 10 16 12 12 12 12 12 13 14 11 4 6
2 5 6 5 5 4 5 6 5 5 4 5 7 9 10 8 8 10 11 11 8 5 4 9 4 6 5
2 2 1 1 2 2 6 6 5 5 5 4 3 4 4 6 3 5 6 5 6 5 5 5 5 5 4
2 0 2 4 2 3 3 4 5 4 4 4 3 3 4 3 4 4 4 5 6 6 7 6 6 5 4
3 4 4 4 4 4 5 5 5 6 6 4 4 4 3 3 3 4 4 4 5 5 5 6 6 7 8
6 6 5 4 4 5 5 5 7 5 5 5 5 4 4 3 3 3 4 4 4 4 5 6 6 8 9
8 6 5 4 4 5 5 6 7 6 6 6 5 5 3 4 4 4 5 5 5 5 7 6 7 9 9
8 6 5 5 5 5 4 5 7 7 7 6 5 4 3 4 4 4 4 5 5 5 4 5 6 8 10
8 7 7 7 6 5 5 6 7 8 8 7 5 4 5 5 5 4 5 4 4 4 6 5 5 6 6
8 7 6 6 6 4 5 7 7 5 6 7 5 5 4 5 5 5 6 6 4 4 8 7 6 5 6
7 7 5 5 4 4 4 9 7 6 6 6 5 6 4 5 5 4 4 7 7 4 5 6 6 5 6
6 4 4 5 4 4 3 6 6 7 6 6 6 6 6 6 6 4 4 4 4 5 3 3 3 1 3
9 9 8 7 5 3 3 4 3 7 7 7 6 7 6 5 5 4 4 6 5 4 7 4 3 2 2
11 11 14 6 6 3 3 2 4 6 7 6 7 7 7 5 7 5 4 4 4 4 3 6 7 3 3
Wind_Direction
151 161 169 166 156 152 149 143 139 136 138 135 130 124 114 104 100 88 78 73 70 66 65 70 73 66 60
168 162 168 181 171 166 157 148 141 139 141 144 143 137 131 121 110 108 101 87 80 76 73 74 74 69 62
165 172 162 151 178 169 146 144 141 143 153 148 139 130 124 128 125 116 104 89 77 61 61 65 68 63 60
276 169 189 175 163 171 161 154 156 152 143 121 127 118 101 66 65 95 95 95 80 63 50 59 56 58 52
321 303 215 132 123 191 179 172 164 143 133 113 104 101 100 78 56 52 51 39 49 58 45 49 59 60 53
282 300 83 98 71 59 51 151 130 122 115 108 117 108 97 98 83 64 63 61 52 53 67 54 51 53 55
94 77 69 72 71 57 49 56 106 117 124 111 88 83 80 109 91 82 74 70 64 58 60 74 67 71 67
88 88 87 70 71 74 52 57 61 78 97 100 100 97 82 73 86 98 95 91 78 75 69 59 69 82 77
101 90 87 85 84 75 70 62 72 76 94 97 86 79 87 85 87 79 66 63 64 64 57 58 75 78 75
105 102 97 89 87 80 74 69 72 79 86 91 95 92 90 89 71 61 66 65 58 60 65 55 75 78 74
106 101 96 90 81 81 92 81 76 81 79 88 88 82 82 86 83 89 60 85 70 68 82 69 57 69 68
113 103 87 83 72 74 90 93 87 85 90 98 88 87 84 89 76 69 83 58 73 80 83 70 56 54 62
136 127 113 113 97 86 88 102 95 91 93 104 100 87 76 88 96 89 95 72 37 14 106 77 49 45 57
148 117 120 123 78 75 58 69 93 102 95 97 102 102 98 103 78 71 78 97 64 6 108 106 139 4 27
129 116 102 99 100 89 48 65 57 95 94 97 98 99 90 86 90 72 86 103 126 32 51 130 105 200 332
145 144 151 142 141 142 123 113 96 85 93 92 94 95 94 92 90 83 76 98 114 119 73 47 65 111 123